Location: Albuquerque Trailhead
(34.7934°N, 106.3736°W)
Time: 00:31:47
(UTC+00:00)

Cosmos 1937 Rocket - Pass Details

Date: 20 June 2021
Orbit: 746 x 780 km, 74.0° (Epoch: 01 August)

Event Time Altitude Azimuth Distance (km) Brightness Sun altitude
Rises 08:51:09 0° 337° (NNW) 3,270 7.3 -26.8°
Reaches altitude 10° 08:53:35 10° 333° (NNW) 2,337 6.4 -26.5°
Enters shadow 08:57:56 49° 290° (WNW) 1,004 3.9 -26.1°
